Search the data

BODC Cruise Metadata Report for MV Dawn Sky cruise DSK1/86

Introduction

This report collates information from the BODC cruise inventory and oceanographic databases. It presents

Cruise Inventory Information

Long name MV Dawn Sky cruise DSK1/86
Short name DSK1/86
Objectives and Narrative Charter - Current meters; tetrapod and guard buoys; water sampling and surveys; nutrient and phytoplankton distribution mapping
Ship MV Dawn Sky
Departure Port Fleetwood, United Kingdom
Departure Date 1986-06-02
Arrival Port Dunstaffnage, United Kingdom
Arrival Date 1986-06-15
Principal Scientist(s) Anton Edwards (Scottish Marine Biological Association)
Responsible Organisation Scottish Marine Biological Association
Associated Project(s)
IHB Sea Areas Visited Irish Sea and St. George's Channel, North East Atlantic Ocean (limit 40W)
Marsden Squares Visited 181;133/181;134/181;143/181;144/181;235/181;245/181;354/181;4
Work Area Description Irish Sea; The Minches; Clyde Sea
Work Area Bounding Polygon 53N,10W; 60N,10W; 60N,3W; 53N,3W; 53N,10W
Southern Limit 53N
Northern Limit 60N
Western Limit 10W
Eastern Limit 3W

Cruise Inventory Datasets

Physical oceanography  
CTD stations Quantity: number of stations = 148
Description: Data received, but rejected(413D)  
Current meters Quantity: 20
Description: relaid  
Water bottle stations Quantity: number of stations = 145
Description: S only 3 S bottom  
Chemical oceanography  
Isotopes Quantity: number of samples = 73
Description: Cs-137  
Nitrate Quantity: 47
Description:  
Silicate Quantity: 47
Description:  
pH Quantity: 47
Description:  
Contamination  
Suspended matter Quantity: number of samples = 1
Description: Tetrapod suspended sediment samples taken at surface,mid and bottom dephts every hour for 12 hours  
Biology and fisheries  
Phytoplankton pigs (eg chlorophyll, fluorescence) Quantity: 147
Description:  

Cruise Inventory Mooring/Buoy Operations

No information on datasets is currently available

Summary of BODC Data Holdings for the Cruise

National Oceanographic Database

Summary

# Series Instrument Description Parameters
148 CTD/STD cast Salinity of the water column
Temperature of the water column
Vertical spatial coordinates
1 Savonius rotor current meter Date and time
Horizontal velocity of the water column (currents)
Moored instrument depth
Temperature of the water column

Note: Parameter terms are taken from the BODC Parameter Discovery Vocabulary XML (SKOS)

Full List

BODC Reference Instrument Description Date/Time Location  
61092 Savonius rotor current meter 1986-06-14 19:00Z to 1986-08-28 09:29Z 56° 37' N, 6° 24' W Click for more
344657 CTD/STD cast 1986-06-02 21:09Z 53° 25' N, 4° 37' W Click for more
344669 CTD/STD cast 1986-06-03 08:26Z 53° 36' N, 4° 37' W Click for more
344670 CTD/STD cast 1986-06-03 12:22Z 53° 46' N, 4° 39' W Click for more
344682 CTD/STD cast 1986-06-03 15:11Z 53° 58' N, 4° 40' W Click for more
344694 CTD/STD cast 1986-06-03 21:02Z 54° 19' N, 4° 13' W Click for more
344701 CTD/STD cast 1986-06-03 22:53Z 54° 22' N, 4° 4' W Click for more
344713 CTD/STD cast 1986-06-04 00:41Z 54° 25' N, 3° 57' W Click for more
344725 CTD/STD cast 1986-06-04 02:05Z 54° 27' N, 3° 49' W Click for more
344737 CTD/STD cast 1986-06-04 03:36Z 54° 30' N, 3° 42' W Click for more
344749 CTD/STD cast 1986-06-04 23:33Z 54° 34' N, 4° 21' W Click for more
344750 CTD/STD cast 1986-06-05 01:16Z 54° 30' N, 4° 22' W Click for more
344762 CTD/STD cast 1986-06-05 13:38Z 54° 39' N, 3° 43' W Click for more
344774 CTD/STD cast 1986-06-05 14:39Z 54° 39' N, 3° 43' W Click for more
344786 CTD/STD cast 1986-06-05 15:30Z 54° 39' N, 3° 43' W Click for more
344798 CTD/STD cast 1986-06-05 16:31Z 54° 39' N, 3° 43' W Click for more
344805 CTD/STD cast 1986-06-05 17:29Z 54° 39' N, 3° 43' W Click for more
344817 CTD/STD cast 1986-06-05 18:28Z 54° 39' N, 3° 43' W Click for more
344829 CTD/STD cast 1986-06-05 19:41Z 54° 39' N, 3° 43' W Click for more
344830 CTD/STD cast 1986-06-05 20:35Z 54° 39' N, 3° 43' W Click for more
344842 CTD/STD cast 1986-06-05 21:37Z 54° 39' N, 3° 43' W Click for more
344854 CTD/STD cast 1986-06-05 22:35Z 54° 39' N, 3° 43' W Click for more
344866 CTD/STD cast 1986-06-05 23:36Z 54° 39' N, 3° 43' W Click for more
344878 CTD/STD cast 1986-06-06 00:39Z 54° 39' N, 3° 43' W Click for more
344891 CTD/STD cast 1986-06-06 01:36Z 54° 39' N, 3° 43' W Click for more
344909 CTD/STD cast 1986-06-06 05:20Z 54° 27' N, 4° 25' W Click for more
344910 CTD/STD cast 1986-06-06 05:52Z 54° 28' N, 4° 30' W Click for more
344922 CTD/STD cast 1986-06-06 06:40Z 54° 31' N, 4° 36' W Click for more
344934 CTD/STD cast 1986-06-06 07:31Z 54° 34' N, 4° 42' W Click for more
344946 CTD/STD cast 1986-06-06 08:30Z 54° 37' N, 4° 46' W Click for more
344958 CTD/STD cast 1986-06-06 11:47Z 54° 40' N, 5° 30' W Click for more
344971 CTD/STD cast 1986-06-06 12:44Z 54° 41' N, 5° 25' W Click for more
344983 CTD/STD cast 1986-06-06 14:02Z 54° 43' N, 5° 19' W Click for more
344995 CTD/STD cast 1986-06-06 15:30Z 54° 45' N, 5° 15' W Click for more
345009 CTD/STD cast 1986-06-06 17:06Z 54° 46' N, 5° 10' W Click for more
345010 CTD/STD cast 1986-06-06 18:28Z 54° 48' N, 5° 4' W Click for more
345022 CTD/STD cast 1986-06-06 20:12Z 54° 57' N, 5° 13' W Click for more
345034 CTD/STD cast 1986-06-06 21:07Z 55° 1' N, 5° 19' W Click for more
345046 CTD/STD cast 1986-06-06 22:11Z 55° 4' N, 5° 25' W Click for more
345058 CTD/STD cast 1986-06-06 23:09Z 55° 9' N, 5° 31' W Click for more
345071 CTD/STD cast 1986-06-07 00:15Z 55° 13' N, 5° 37' W Click for more
345083 CTD/STD cast 1986-06-07 01:27Z 55° 12' N, 5° 25' W Click for more
345095 CTD/STD cast 1986-06-07 02:05Z 55° 13' N, 5° 24' W Click for more
345102 CTD/STD cast 1986-06-07 02:35Z 55° 13' N, 5° 22' W Click for more
345114 CTD/STD cast 1986-06-07 03:13Z 55° 15' N, 5° 19' W Click for more
345126 CTD/STD cast 1986-06-07 03:38Z 55° 16' N, 5° 18' W Click for more
345138 CTD/STD cast 1986-06-07 04:02Z 55° 16' N, 5° 16' W Click for more
345151 CTD/STD cast 1986-06-07 04:27Z 55° 18' N, 5° 13' W Click for more
345163 CTD/STD cast 1986-06-07 04:50Z 55° 19' N, 5° 12' W Click for more
345175 CTD/STD cast 1986-06-07 05:12Z 55° 19' N, 5° 10' W Click for more
345187 CTD/STD cast 1986-06-07 05:35Z 55° 21' N, 5° 7' W Click for more
345199 CTD/STD cast 1986-06-07 05:54Z 55° 22' N, 5° 6' W Click for more
345206 CTD/STD cast 1986-06-07 21:10Z 55° 13' N, 5° 37' W Click for more
345218 CTD/STD cast 1986-06-07 22:48Z 55° 16' N, 5° 30' W Click for more
345231 CTD/STD cast 1986-06-07 23:57Z 55° 19' N, 5° 28' W Click for more
345243 CTD/STD cast 1986-06-08 00:36Z 55° 22' N, 5° 27' W Click for more
345255 CTD/STD cast 1986-06-08 01:43Z 55° 27' N, 5° 28' W Click for more
345267 CTD/STD cast 1986-06-08 02:51Z 55° 31' N, 5° 22' W Click for more
345279 CTD/STD cast 1986-06-08 03:34Z 55° 31' N, 5° 27' W Click for more
345280 CTD/STD cast 1986-06-08 04:17Z 55° 34' N, 5° 25' W Click for more
345292 CTD/STD cast 1986-06-08 05:39Z 55° 39' N, 5° 25' W Click for more
345311 CTD/STD cast 1986-06-08 06:27Z 55° 42' N, 5° 21' W Click for more
345323 CTD/STD cast 1986-06-08 08:02Z 55° 45' N, 5° 16' W Click for more
345335 CTD/STD cast 1986-06-08 17:37Z 55° 46' N, 5° 13' W Click for more
345347 CTD/STD cast 1986-06-08 18:55Z 55° 49' N, 5° 16' W Click for more
345359 CTD/STD cast 1986-06-08 20:42Z 55° 54' N, 5° 22' W Click for more
345360 CTD/STD cast 1986-06-08 22:17Z 55° 58' N, 5° 22' W Click for more
345372 CTD/STD cast 1986-06-09 01:32Z 55° 42' N, 5° 9' W Click for more
345384 CTD/STD cast 1986-06-09 02:44Z 55° 42' N, 5° 4' W Click for more
345396 CTD/STD cast 1986-06-09 04:14Z 55° 49' N, 4° 58' W Click for more
345403 CTD/STD cast 1986-06-09 04:52Z 55° 49' N, 4° 55' W Click for more
345415 CTD/STD cast 1986-06-09 19:22Z 55° 39' N, 4° 55' W Click for more
345427 CTD/STD cast 1986-06-09 20:06Z 55° 37' N, 5° 0' W Click for more
345439 CTD/STD cast 1986-06-09 21:19Z 55° 36' N, 5° 4' W Click for more
345440 CTD/STD cast 1986-06-09 23:15Z 55° 28' N, 4° 45' W Click for more
345452 CTD/STD cast 1986-06-10 00:05Z 55° 28' N, 4° 49' W Click for more
345464 CTD/STD cast 1986-06-10 00:45Z 55° 28' N, 4° 55' W Click for more
345476 CTD/STD cast 1986-06-10 01:31Z 55° 28' N, 5° 1' W Click for more
345488 CTD/STD cast 1986-06-10 03:01Z 55° 34' N, 4° 58' W Click for more
345507 CTD/STD cast 1986-06-10 05:06Z 55° 22' N, 5° 4' W Click for more
345519 CTD/STD cast 1986-06-10 06:54Z 55° 22' N, 4° 51' W Click for more
345520 CTD/STD cast 1986-06-10 07:47Z 55° 22' N, 4° 58' W Click for more
345532 CTD/STD cast 1986-06-10 09:06Z 55° 16' N, 4° 55' W Click for more
345544 CTD/STD cast 1986-06-10 10:08Z 55° 19' N, 5° 19' W Click for more
345556 CTD/STD cast 1986-06-10 10:47Z 55° 19' N, 5° 7' W Click for more
345568 CTD/STD cast 1986-06-10 11:47Z 55° 22' N, 5° 12' W Click for more
345581 CTD/STD cast 1986-06-10 12:40Z 55° 24' N, 5° 19' W Click for more
345593 CTD/STD cast 1986-06-10 13:27Z 55° 22' N, 5° 27' W Click for more
345600 CTD/STD cast 1986-06-10 14:17Z 55° 19' N, 5° 19' W Click for more
345612 CTD/STD cast 1986-06-10 15:10Z 55° 16' N, 5° 13' W Click for more
345624 CTD/STD cast 1986-06-10 15:39Z 55° 13' N, 5° 12' W Click for more
345636 CTD/STD cast 1986-06-10 16:42Z 55° 13' N, 5° 3' W Click for more
345648 CTD/STD cast 1986-06-10 17:29Z 55° 13' N, 4° 58' W Click for more
345661 CTD/STD cast 1986-06-10 18:31Z 55° 4' N, 5° 4' W Click for more
345673 CTD/STD cast 1986-06-10 18:55Z 55° 6' N, 5° 7' W Click for more
345685 CTD/STD cast 1986-06-10 19:42Z 55° 7' N, 5° 13' W Click for more
345697 CTD/STD cast 1986-06-10 20:55Z 55° 9' N, 5° 19' W Click for more
345704 CTD/STD cast 1986-06-10 22:05Z 55° 12' N, 5° 27' W Click for more
345716 CTD/STD cast 1986-06-10 22:57Z 55° 16' N, 5° 30' W Click for more
345728 CTD/STD cast 1986-06-11 00:47Z 55° 4' N, 5° 16' W Click for more
345741 CTD/STD cast 1986-06-11 02:49Z 55° 4' N, 5° 25' W Click for more
345753 CTD/STD cast 1986-06-11 05:32Z 55° 16' N, 5° 43' W Click for more
345765 CTD/STD cast 1986-06-11 06:02Z 55° 15' N, 5° 47' W Click for more
345777 CTD/STD cast 1986-06-11 07:13Z 55° 13' N, 5° 52' W Click for more
345789 CTD/STD cast 1986-06-11 08:21Z 55° 11' N, 5° 55' W Click for more
345790 CTD/STD cast 1986-06-11 09:15Z 55° 9' N, 6° 0' W Click for more
345808 CTD/STD cast 1986-06-11 13:40Z 55° 13' N, 6° 45' W Click for more
345821 CTD/STD cast 1986-06-11 14:36Z 55° 18' N, 6° 41' W Click for more
345833 CTD/STD cast 1986-06-11 15:30Z 55° 23' N, 6° 37' W Click for more
345845 CTD/STD cast 1986-06-11 16:38Z 55° 28' N, 6° 33' W Click for more
345857 CTD/STD cast 1986-06-11 17:28Z 55° 33' N, 6° 30' W Click for more
345869 CTD/STD cast 1986-06-11 18:21Z 55° 37' N, 6° 25' W Click for more
345870 CTD/STD cast 1986-06-11 19:14Z 55° 42' N, 6° 22' W Click for more
345882 CTD/STD cast 1986-06-12 04:21Z 56° 40' N, 6° 7' W Click for more
345894 CTD/STD cast 1986-06-12 05:50Z 56° 40' N, 6° 16' W Click for more
345901 CTD/STD cast 1986-06-12 07:19Z 56° 43' N, 6° 27' W Click for more
345913 CTD/STD cast 1986-06-12 21:06Z 56° 19' N, 5° 41' W Click for more
345925 CTD/STD cast 1986-06-12 22:33Z 56° 17' N, 5° 49' W Click for more
345937 CTD/STD cast 1986-06-12 23:59Z 56° 16' N, 6° 4' W Click for more
345949 CTD/STD cast 1986-06-13 00:53Z 56° 13' N, 6° 2' W Click for more
345950 CTD/STD cast 1986-06-13 01:56Z 56° 10' N, 5° 58' W Click for more
345962 CTD/STD cast 1986-06-13 02:52Z 56° 7' N, 5° 55' W Click for more
345974 CTD/STD cast 1986-06-13 03:36Z 56° 5' N, 5° 52' W Click for more
345986 CTD/STD cast 1986-06-13 05:12Z 56° 11' N, 6° 10' W Click for more
345998 CTD/STD cast 1986-06-13 06:44Z 56° 9' N, 6° 19' W Click for more
346001 CTD/STD cast 1986-06-13 08:05Z 56° 10' N, 6° 30' W Click for more
346013 CTD/STD cast 1986-06-13 09:52Z 56° 10' N, 6° 45' W Click for more
346025 CTD/STD cast 1986-06-13 11:26Z 56° 10' N, 7° 0' W Click for more
346037 CTD/STD cast 1986-06-13 12:52Z 56° 10' N, 7° 15' W Click for more
346049 CTD/STD cast 1986-06-13 14:45Z 56° 10' N, 7° 30' W Click for more
346050 CTD/STD cast 1986-06-13 17:21Z 56° 10' N, 7° 45' W Click for more
346062 CTD/STD cast 1986-06-13 19:00Z 56° 10' N, 8° 0' W Click for more
346074 CTD/STD cast 1986-06-13 21:14Z 56° 10' N, 8° 15' W Click for more
346086 CTD/STD cast 1986-06-14 02:13Z 56° 43' N, 7° 40' W Click for more
346098 CTD/STD cast 1986-06-14 04:09Z 56° 43' N, 7° 30' W Click for more
346105 CTD/STD cast 1986-06-14 05:19Z 56° 43' N, 7° 19' W Click for more
346117 CTD/STD cast 1986-06-14 07:44Z 56° 43' N, 7° 0' W Click for more
346129 CTD/STD cast 1986-06-14 10:01Z 56° 43' N, 6° 45' W Click for more
346130 CTD/STD cast 1986-06-14 11:41Z 56° 43' N, 6° 27' W Click for more
346142 CTD/STD cast 1986-06-14 13:56Z 56° 49' N, 6° 12' W Click for more
346154 CTD/STD cast 1986-06-14 15:03Z 56° 45' N, 6° 16' W Click for more
346166 CTD/STD cast 1986-06-14 18:53Z 56° 40' N, 6° 13' W Click for more
346178 CTD/STD cast 1986-06-14 19:15Z 56° 40' N, 6° 10' W Click for more
346191 CTD/STD cast 1986-06-14 19:30Z 56° 40' N, 6° 7' W Click for more
346209 CTD/STD cast 1986-06-14 20:23Z 56° 37' N, 6° 0' W Click for more
346210 CTD/STD cast 1986-06-14 21:14Z 56° 32' N, 5° 54' W Click for more
346222 CTD/STD cast 1986-06-14 21:54Z 56° 31' N, 5° 46' W Click for more
346234 CTD/STD cast 1986-06-14 22:57Z 56° 29' N, 5° 38' W Click for more
346246 CTD/STD cast 1986-06-15 00:02Z 56° 24' N, 5° 37' W Click for more

Project Database

No data currently held for this cruise in the BODC Project Database

References

Track Charts

Track Chart

Reports

Cruise Report